Weather History for Fremont, NE

Change the Weather History Date:

Tuesday, January 11, 2011

  Actual Average Record
Temperature  
Mean Temperature 4 °F -  
Max Temperature 9 °F 28 °F 59 °F (1990)
Min Temperature 0 °F 9 °F -10 °F (1982)
Degree Days  
Heating Degree Days 60    
Moisture  
Dew Point -1 °F    
Average Humidity 76    
Maximum Humidity 85    
Minimum Humidity 66    
Precipitation  
Precipitation 0.00 in - - ()
Sea Level Pressure  
Sea Level Pressure 30.40 in    
Wind  
Wind Speed 17 mph (WNW)    
Max Wind Speed 25 mph    
Max Gust Speed 26 mph    
Visibility 9 miles    
Events Snow    
Averages and records for this station are not official NWS values.
T = Trace of Precipitation, MM = Missing Value Source: NWS Daily Summary

Daily Weather History Graph

Daily Weather History Graph

Search for Another Location

Airport:

Trip Planner

Search our weather history database for the weather conditions in past years. The results will help you decide how hot, cold, wet, or windy it might be!

Date:

Astronomy

Jan. 11, 2011 Rise Set
Actual Time 7:51 AM CST 5:16 PM CST
Civil Twilight 7:20 AM CST 5:47 PM CST
Nautical Twilight 6:46 AM CST 6:21 PM CST
Astronomical Twilight 6:13 AM CST 6:55 PM CST
Moon 11:06 AM CST (1/11) No Moon Set
Length of Visible Light 10h 26m
Length of Day
9h 25m
Waxing Crescent, 43% of the Moon is Illuminated
Jan 11
Waxing Crescent
Jan 12
First Quarter
Jan 19
Full
Jan 26
Last Quarter
Feb 2
New

Hourly Weather History & Observations

Time (CST) Temp. Windchill Dew Point Humidity Pressure Visibility Wind Dir Wind Speed Gust Speed Precip Events Conditions
12:10 AM 7.5 °F -9.7 °F 2.7 °F 81% 30.28 in 10.0 mi WNW 15.0 mph 20.7 mph N/A   Clear
12:30 AM 7.2 °F -9.6 °F 2.5 °F 81% 30.28 in 10.0 mi NW 13.8 mph 20.7 mph N/A   Clear
12:50 AM 7.3 °F -8.6 °F 2.5 °F 81% 30.28 in 10.0 mi WNW 12.7 mph - N/A   Clear
1:10 AM 7.3 °F -9.3 °F 2.5 °F 81% 30.28 in 10.0 mi NW 13.8 mph - N/A   Clear
1:30 AM 7.3 °F -9.3 °F 2.5 °F 81% 30.28 in 10.0 mi NW 13.8 mph - N/A   Clear
1:50 AM 7.3 °F -10.6 °F 2.8 °F 82% 30.28 in 10.0 mi NW 16.1 mph - N/A   Clear
2:10 AM 7.0 °F -9.1 °F 2.3 °F 81% 30.29 in 10.0 mi WNW 12.7 mph - N/A   Clear
2:30 AM 5.9 °F -12.4 °F 1.4 °F 82% 30.30 in 10.0 mi WNW 16.1 mph 19.6 mph N/A   Clear
2:50 AM 6.1 °F -12.2 °F 1.4 °F 81% 30.31 in 10.0 mi WNW 16.1 mph 23.0 mph N/A   Clear
3:10 AM 5.9 °F -13.0 °F 1.0 °F 80% 30.31 in 10.0 mi WNW 17.3 mph 23.0 mph N/A   Clear
3:30 AM 5.9 °F -13.5 °F 0.7 °F 79% 30.31 in 10.0 mi WNW 18.4 mph - N/A   Clear
3:50 AM 5.7 °F -15.7 °F 0.7 °F 80% 30.31 in 10.0 mi WNW 23.0 mph 26.5 mph N/A   Clear
4:10 AM 5.4 °F -15.3 °F 0.5 °F 80% 30.31 in 7.0 mi WNW 20.7 mph - N/A   Clear
4:30 AM 4.8 °F -15.5 °F -0.4 °F 79% 30.31 in 10.0 mi WNW 19.6 mph - N/A   Clear
4:50 AM 4.6 °F -15.7 °F -0.4 °F 80% 30.32 in 10.0 mi WNW 19.6 mph 25.3 mph N/A   Clear
5:10 AM 4.6 °F -15.2 °F -0.6 °F 79% 30.32 in 10.0 mi West 18.4 mph - N/A   Clear
5:30 AM 4.1 °F -16.4 °F -0.9 °F 80% 30.33 in 10.0 mi West 19.6 mph - N/A   Clear
5:50 AM 4.1 °F -16.4 °F -1.3 °F 78% 30.33 in 10.0 mi West 19.6 mph - N/A   Clear
6:10 AM 3.7 °F -16.4 °F -1.3 °F 80% 30.34 in 10.0 mi West 18.4 mph - N/A   Clear
6:30 AM 3.2 °F -17.1 °F -2.0 °F 79% 30.35 in 10.0 mi WNW 18.4 mph - N/A   Clear
6:50 AM 3.4 °F -19.3 °F -1.7 °F 80% 30.35 in 10.0 mi WNW 24.2 mph - N/A   Clear
7:10 AM 2.3 °F -18.8 °F -2.7 °F 79% 30.36 in 10.0 mi West 19.6 mph - N/A   Clear
7:30 AM 2.1 °F -18.5 °F -3.3 °F 78% 30.37 in 10.0 mi West 18.4 mph - N/A   Clear
7:50 AM 1.8 °F -18.9 °F -3.6 °F 78% 30.38 in 10.0 mi West 18.4 mph - N/A   Clear
8:10 AM 1.4 °F -18.8 °F -4.0 °F 78% 30.38 in 10.0 mi West 17.3 mph - N/A   Clear
8:30 AM 1.4 °F -19.4 °F -4.0 °F 78% 30.39 in 10.0 mi West 18.4 mph - N/A   Clear
8:50 AM 1.9 °F -20.7 °F -3.6 °F 77% 30.40 in 10.0 mi WNW 23.0 mph - N/A   Clear
9:30 AM 2.8 °F -19.5 °F -3.1 °F 76% 30.42 in 7.0 mi WNW 23.0 mph - N/A   Clear
9:31 AM 1.4 °F -21.9 °F -2.2 °F 85% 30.42 in 7.0 mi WNW 24.2 mph - N/A   Clear
9:50 AM 3.2 °F -19.9 °F -2.4 °F 78% 30.42 in 5.0 mi WNW 25.3 mph - N/A   Haze
10:10 AM 4.6 °F -15.7 °F -1.8 °F 75% 30.43 in 7.0 mi WNW 19.6 mph - N/A   Clear
10:30 AM 5.0 °F -14.7 °F -1.8 °F 73% 30.43 in 10.0 mi WNW 18.4 mph 25.3 mph N/A   Clear
10:50 AM 5.4 °F -14.2 °F -1.5 °F 73% 30.43 in 10.0 mi WNW 18.4 mph 25.3 mph N/A   Clear
11:10 AM 6.3 °F -13.1 °F -1.1 °F 72% 30.44 in 10.0 mi WNW 18.4 mph 23.0 mph N/A   Clear
11:30 AM 6.6 °F -13.1 °F -0.8 °F 72% 30.43 in 10.0 mi WNW 19.6 mph 25.3 mph N/A   Clear
11:50 AM 6.8 °F -12.9 °F -0.4 °F 72% 30.43 in 7.0 mi WNW 19.6 mph - N/A   Clear
12:30 PM 7.5 °F -11.4 °F 0.3 °F 72% 30.42 in 5.0 mi WNW 18.4 mph - N/A   Haze
12:50 PM 8.2 °F -10.5 °F 0.7 °F 71% 30.41 in 10.0 mi WNW 18.4 mph - N/A   Clear
1:10 PM 8.6 °F -8.9 °F 0.9 °F 71% 30.42 in 10.0 mi WNW 16.1 mph - N/A   Clear
1:30 PM 8.8 °F -8.1 °F 0.9 °F 70% 30.42 in 10.0 mi West 15.0 mph 26.5 mph N/A   Clear
1:50 PM 9.1 °F -9.3 °F 0.5 °F 68% 30.43 in 10.0 mi WNW 18.4 mph 26.5 mph N/A   Clear
2:10 PM 9.0 °F -9.0 °F 0.5 °F 69% 30.44 in 10.0 mi WNW 17.3 mph - N/A   Clear
2:30 PM 8.8 °F -9.3 °F 0.5 °F 69% 30.44 in 10.0 mi WNW 17.3 mph - N/A   Clear
2:50 PM 8.6 °F -8.9 °F 0.3 °F 69% 30.45 in 10.0 mi WNW 16.1 mph - N/A   Clear
3:10 PM 9.1 °F -8.2 °F -0.2 °F 66% 30.45 in 10.0 mi WNW 16.1 mph - N/A   Clear
3:30 PM 9.0 °F -8.5 °F -0.0 °F 67% 30.45 in 10.0 mi West 16.1 mph - N/A   Clear
3:50 PM 8.1 °F -10.7 °F 0.1 °F 70% 30.46 in 10.0 mi WNW 18.4 mph - N/A   Clear
4:10 PM 7.7 °F -11.2 °F -0.4 °F 70% 30.46 in 10.0 mi WNW 18.4 mph 26.5 mph N/A   Clear
4:30 PM 6.6 °F -10.2 °F -1.3 °F 70% 30.47 in 10.0 mi WNW 13.8 mph - N/A   Clear
4:50 PM 5.9 °F -11.8 °F -1.8 °F 70% 30.48 in 10.0 mi WNW 15.0 mph - N/A   Clear
5:10 PM 4.8 °F -13.2 °F -2.2 °F 73% 30.48 in 10.0 mi WNW 15.0 mph - N/A   Clear
5:30 PM 3.7 °F -14.6 °F -3.3 °F 73% 30.48 in 10.0 mi WNW 15.0 mph - N/A   Clear
5:50 PM 2.7 °F -14.5 °F -4.0 °F 74% 30.48 in 10.0 mi West 12.7 mph - N/A   Clear
6:10 PM 1.8 °F -14.0 °F -4.7 °F 74% 30.49 in 10.0 mi WNW 10.4 mph - N/A   Clear
6:30 PM 1.8 °F -16.4 °F -3.8 °F 77% 30.50 in 7.0 mi WNW 13.8 mph - N/A   Mostly Cloudy
6:50 PM 2.7 °F -13.8 °F -3.3 °F 76% 30.50 in 4.0 mi WNW 11.5 mph - N/A Snow Light Snow
7:10 PM 1.8 °F -13.1 °F -3.8 °F 77% 30.51 in 5.0 mi West 9.2 mph - N/A Snow Light Snow
7:30 PM 1.0 °F -17.3 °F -4.9 °F 76% 30.52 in 10.0 mi WNW 13.8 mph - N/A   Clear
7:50 PM 1.4 °F -17.6 °F -4.4 °F 77% 30.52 in 10.0 mi WNW 15.0 mph - N/A   Clear
8:10 PM 1.0 °F -17.3 °F -4.9 °F 76% 30.53 in 10.0 mi WNW 13.8 mph - N/A   Clear
8:30 PM -0.6 °F -17.8 °F -5.8 °F 79% 30.53 in 10.0 mi WNW 11.5 mph - N/A Snow Light Snow
8:50 PM -0.9 °F -19.1 °F -6.0 °F 79% 30.54 in 10.0 mi WNW 12.7 mph - N/A Snow Light Snow
9:10 PM -0.9 °F -19.9 °F -6.0 °F 79% 30.55 in 10.0 mi West 13.8 mph - N/A Snow Light Snow
9:30 PM -1.7 °F -20.0 °F -6.5 °F 80% 30.55 in 7.0 mi West 12.7 mph - N/A Snow Light Snow
9:50 PM 0.1 °F -17.7 °F -4.7 °F 80% 30.55 in 7.0 mi WNW 12.7 mph - N/A Snow Light Snow
10:30 PM 2.1 °F -16.0 °F -3.6 °F 77% 30.57 in 10.0 mi NW 13.8 mph - N/A   Overcast
10:50 PM 1.4 °F -17.6 °F -4.4 °F 77% 30.57 in 10.0 mi WNW 15.0 mph - N/A   Mostly Cloudy
11:10 PM 0.1 °F -16.9 °F -5.6 °F 77% 30.57 in 10.0 mi NW 11.5 mph - N/A   Scattered Clouds
11:30 PM -0.9 °F -17.4 °F -6.3 °F 78% 30.57 in 10.0 mi WNW 10.4 mph - N/A   Clear
11:50 PM -1.3 °F -19.6 °F -6.7 °F 78% 30.57 in 10.0 mi WNW 12.7 mph - N/A   Clear